• In Deutschland
  • Länderverzeichnis
  • Für 7 Tage
  • Wassertemperatur
  • Satellitenkarten
  • Wetterkarte
  • Widgets
  • user-avatar
    Anmelden

    Stündliche Wetter Canberra

    Heute, 25 November, Samstag

    Zeit Temperatur Niederschläge Wind Luftdruck Luftfeuchtigkeit
    00:00 +15°C° 0 mm 1 m/S 710 mmHg 80%
    01:00 +15°C° 0 mm 1 m/S 710 mmHg 81%
    02:00 +15°C° 0 mm 1 m/S 710 mmHg 81%
    03:00 +15°C° 0 mm 1 m/S 710 mmHg 81%
    04:00 +14°C° 0 mm 1 m/S 710 mmHg 81%
    05:00 +18°C° 0 mm 1 m/S 710 mmHg 74%
    06:00 +20°C° 0 mm 1 m/S 711 mmHg 67%
    07:00 +20°C° 0 mm 0 m/S 711 mmHg 60%
    08:00 +25°C° 0 mm 1 m/S 711 mmHg 51%
    09:00 +27°C° 0 mm 1 m/S 712 mmHg 43%
    10:00 +30°C° 0 mm 1 m/S 712 mmHg 35%
    11:00 +30°C° 0 mm 1 m/S 711 mmHg 34%
    12:00 +30°C° 0 mm 1 m/S 711 mmHg 32%
    13:00 +31°C° 0 mm 1 m/S 711 mmHg 31%
    14:00 +30°C° 0 mm 1 m/S 710 mmHg 34%
    15:00 +29°C° 0 mm 1 m/S 710 mmHg 37%
    16:00 +28°C° 0 mm 2 m/S 709 mmHg 40%
    17:00 +26°C° 0 mm 2 m/S 709 mmHg 46%
    18:00 +24°C° 0 mm 2 m/S 710 mmHg 52%
    19:00 +23°C° 0 mm 2 m/S 710 mmHg 58%
    20:00 +20°C° 0 mm 2 m/S 710 mmHg 65%
    21:00 +19°C° 0 mm 2 m/S 710 mmHg 72%
    22:00 +17°C° 0 mm 2 m/S 710 mmHg 79%
    23:00 +16°C° 0 mm 1 m/S 710 mmHg 82%

    Morgen, 26 November, Sonntag

    Zeit Temperatur Niederschläge Wind Luftdruck Luftfeuchtigkeit
    00:00 +16°C° 0 mm 1 m/S 710 mmHg 85%
    01:00 +15°C° 0 mm 1 m/S 709 mmHg 88%
    02:00 +15°C° 0 mm 1 m/S 709 mmHg 88%
    03:00 +14°C° 0 mm 1 m/S 709 mmHg 88%
    04:00 +14°C° 0 mm 1 m/S 708 mmHg 88%
    05:00 +16°C° 0 mm 1 m/S 709 mmHg 78%
    06:00 +19°C° 0 mm 1 m/S 709 mmHg 67%
    07:00 +21°C° 0 mm 1 m/S 710 mmHg 57%
    08:00 +24°C° 0 mm 1 m/S 710 mmHg 49%
    09:00 +26°C° 0 mm 2 m/S 710 mmHg 41%
    10:00 +29°C° 0 mm 2 m/S 711 mmHg 33%
    11:00 +30°C° 0 mm 2 m/S 710 mmHg 32%
    12:00 +31°C° 0 mm 2 m/S 710 mmHg 30%
    13:00 +32°C° 0 mm 2 m/S 710 mmHg 29%
    14:00 +31°C° 0 mm 2 m/S 709 mmHg 33%
    15:00 +30°C° 0 mm 2 m/S 709 mmHg 36%
    16:00 +29°C° 0 mm 1 m/S 708 mmHg 40%
    17:00 +26°C° 0,5 mm 2 m/S 708 mmHg 52%
    18:00 +24°C° 0,5 mm 2 m/S 708 mmHg 64%
    19:00 +20°C° 0,5 mm 3 m/S 708 mmHg 76%
    20:00 +19°C° 0,8 mm 2 m/S 708 mmHg 80%
    21:00 +19°C° 0,8 mm 2 m/S 709 mmHg 85%
    22:00 +19°C° 0,8 mm 1 m/S 709 mmHg 90%
    23:00 +19°C° 0,2 mm 1 m/S 709 mmHg 91%

    übermorgen, 27 November, Montag

    Zeit Temperatur Niederschläge Wind Luftdruck Luftfeuchtigkeit
    00:00 +19°C° 0,2 mm 1 m/S 708 mmHg 92%
    01:00 +18°C° 0,2 mm 1 m/S 708 mmHg 92%
    02:00 +18°C° 0,2 mm 1 m/S 708 mmHg 94%
    03:00 +18°C° 0,2 mm 1 m/S 708 mmHg 95%
    04:00 +18°C° 0,2 mm 1 m/S 708 mmHg 96%
    05:00 +19°C° 0,8 mm 1 m/S 708 mmHg 94%
    06:00 +19°C° 0,8 mm 1 m/S 709 mmHg 92%
    07:00 +20°C° 0,8 mm 1 m/S 709 mmHg 90%
    08:00 +20°C° 1,8 mm 1 m/S 709 mmHg 90%
    09:00 +20°C° 1,8 mm 1 m/S 709 mmHg 89%
    10:00 +20°C° 1,8 mm 1 m/S 709 mmHg 89%
    11:00 +21°C° 0,8 mm 1 m/S 709 mmHg 84%
    12:00 +22°C° 0,8 mm 1 m/S 709 mmHg 79%
    13:00 +23°C° 0,8 mm 1 m/S 709 mmHg 75%
    14:00 +24°C° 0,3 mm 2 m/S 708 mmHg 69%
    15:00 +25°C° 0,3 mm 2 m/S 708 mmHg 64%
    16:00 +25°C° 0,3 mm 3 m/S 708 mmHg 59%
    17:00 +23°C° 1,1 mm 2 m/S 708 mmHg 69%
    18:00 +20°C° 1,1 mm 2 m/S 709 mmHg 79%
    19:00 +19°C° 1,1 mm 2 m/S 709 mmHg 89%
    20:00 +18°C° 0,3 mm 2 m/S 709 mmHg 91%
    21:00 +18°C° 0,3 mm 1 m/S 709 mmHg 94%
    22:00 +18°C° 0,3 mm 1 m/S 710 mmHg 96%
    23:00 +18°C° 0 mm 1 m/S 709 mmHg 97%

    28 November, Dienstag

    Zeit Temperatur Niederschläge Wind Luftdruck Luftfeuchtigkeit
    00:00 +16°C° 0 mm 1 m/S 709 mmHg 97%
    01:00 +16°C° 0 mm 1 m/S 709 mmHg 97%
    02:00 +16°C° 0 mm 1 m/S 709 mmHg 97%
    03:00 +15°C° 0 mm 1 m/S 709 mmHg 96%
    04:00 +15°C° 0 mm 1 m/S 709 mmHg 96%
    05:00 +18°C° 0 mm 1 m/S 709 mmHg 90%
    06:00 +19°C° 0 mm 1 m/S 710 mmHg 85%
    07:00 +21°C° 0 mm 1 m/S 711 mmHg 80%
    08:00 +23°C° 0 mm 1 m/S 711 mmHg 69%
    09:00 +25°C° 0 mm 1 m/S 711 mmHg 57%
    10:00 +28°C° 0 mm 1 m/S 711 mmHg 46%
    11:00 +28°C° 0,5 mm 1 m/S 711 mmHg 47%
    12:00 +29°C° 0,5 mm 1 m/S 711 mmHg 48%
    13:00 +29°C° 0,5 mm 2 m/S 710 mmHg 49%
    14:00 +28°C° 0,6 mm 2 m/S 710 mmHg 54%
    15:00 +27°C° 0,6 mm 3 m/S 710 mmHg 60%
    16:00 +25°C° 0,6 mm 3 m/S 710 mmHg 66%
    17:00 +24°C° 0,3 mm 3 m/S 710 mmHg 72%
    18:00 +21°C° 0,3 mm 3 m/S 710 mmHg 79%
    19:00 +20°C° 0,3 mm 2 m/S 711 mmHg 85%
    20:00 +19°C° 0 mm 2 m/S 711 mmHg 89%
    21:00 +18°C° 0 mm 2 m/S 711 mmHg 92%
    22:00 +17°C° 0 mm 2 m/S 712 mmHg 96%
    23:00 +17°C° 0 mm 2 m/S 711 mmHg 96%

    29 November, Mittwoch

    Zeit Temperatur Niederschläge Wind Luftdruck Luftfeuchtigkeit
    00:00 +17°C° 0 mm 2 m/S 711 mmHg 96%
    01:00 +17°C° 0 mm 2 m/S 711 mmHg 96%
    02:00 +17°C° 0 mm 2 m/S 711 mmHg 96%
    03:00 +18°C° 0 mm 1 m/S 711 mmHg 96%
    04:00 +18°C° 0 mm 1 m/S 711 mmHg 96%
    05:00 +19°C° 0 mm 1 m/S 712 mmHg 93%
    06:00 +19°C° 0 mm 2 m/S 712 mmHg 90%
    07:00 +20°C° 0 mm 2 m/S 713 mmHg 87%
    08:00 +21°C° 0 mm 2 m/S 713 mmHg 80%
    09:00 +24°C° 0 mm 2 m/S 713 mmHg 72%
    10:00 +25°C° 0 mm 2 m/S 713 mmHg 64%
    11:00 +27°C° 0,1 mm 2 m/S 712 mmHg 60%
    12:00 +28°C° 0,1 mm 2 m/S 712 mmHg 56%
    13:00 +29°C° 0,1 mm 3 m/S 711 mmHg 51%
    14:00 +28°C° 0,4 mm 3 m/S 711 mmHg 56%
    15:00 +27°C° 0,4 mm 3 m/S 711 mmHg 60%
    16:00 +27°C° 0,4 mm 3 m/S 711 mmHg 65%
    17:00 +25°C° 0,5 mm 3 m/S 711 mmHg 72%
    18:00 +22°C° 0,5 mm 3 m/S 711 mmHg 79%
    19:00 +21°C° 0,5 mm 2 m/S 711 mmHg 87%
    20:00 +20°C° 0 mm 2 m/S 711 mmHg 89%
    21:00 +19°C° 0 mm 2 m/S 711 mmHg 92%
    22:00 +19°C° 0 mm 2 m/S 711 mmHg 95%
    23:00 +18°C° 0 mm 2 m/S 711 mmHg 95%

    30 November, Donnerstag

    Zeit Temperatur Niederschläge Wind Luftdruck Luftfeuchtigkeit
    00:00 +18°C° 0 mm 2 m/S 711 mmHg 96%
    01:00 +19°C° 0 mm 1 m/S 711 mmHg 96%
    02:00 +18°C° 0 mm 1 m/S 711 mmHg 97%
    03:00 +18°C° 0 mm 1 m/S 710 mmHg 97%
    04:00 +16°C° 0 mm 1 m/S 710 mmHg 98%
    05:00 +18°C° 0 mm 1 m/S 711 mmHg 94%
    06:00 +19°C° 0 mm 1 m/S 711 mmHg 91%
    07:00 +20°C° 0 mm 1 m/S 711 mmHg 88%
    08:00 +22°C° 0 mm 1 m/S 711 mmHg 80%
    09:00 +24°C° 0 mm 2 m/S 711 mmHg 72%
    10:00 +25°C° 0 mm 2 m/S 711 mmHg 63%
    11:00 +26°C° 0,1 mm 2 m/S 711 mmHg 58%
    12:00 +28°C° 0,1 mm 2 m/S 710 mmHg 53%
    13:00 +29°C° 0,1 mm 2 m/S 710 mmHg 48%
    14:00 +28°C° 0,5 mm 2 m/S 709 mmHg 54%
    15:00 +27°C° 0,5 mm 2 m/S 709 mmHg 60%
    16:00 +26°C° 0,5 mm 3 m/S 709 mmHg 66%
    17:00 +24°C° 0,4 mm 2 m/S 709 mmHg 73%
    18:00 +23°C° 0,4 mm 2 m/S 709 mmHg 81%
    19:00 +20°C° 0,4 mm 2 m/S 708 mmHg 88%
    20:00 +21°C° 0 mm 1 m/S 708 mmHg 90%
    21:00 +20°C° 0 mm 1 m/S 708 mmHg 93%
    22:00 +19°C° 0 mm 1 m/S 708 mmHg 95%
    23:00 +19°C° 0,1 mm 1 m/S 708 mmHg 95%
    Mehr zeigen